[Iaude] MPEC H71: 2024 HK1 [a=1.26,e=0.23,i=13.3,H=25.3]
    mpec at cfa.harvard.edu 
    mpec at cfa.harvard.edu
       
    Wed Apr 24 21:01:26 EDT 2024
    
    
  
M.P.E.C. 2024-H71                                Issued 2024 April 25, 00:59 UT
     The Minor Planet Electronic Circulars contain information on unusual
         minor planets, routine data on comets and natural satellites,
         and occasional editorial announcements.  They are published
    on behalf of Division F of the International Astronomical Union by the
          Minor Planet Center, Smithsonian Astrophysical Observatory,
                          Cambridge, MA 02138, U.S.A.
			  
             Prepared using the Tamkin Foundation Computer Network
                              MPC at CFA.HARVARD.EDU
            URL https://www.minorplanetcenter.net/    ISSN 1523-6714
                                    2024 HK1                                    
Observations:
     K24H01K* C2024 04 21.49925114 54 43.646+40 52 58.56         21.00iXEH071F52
     K24H01K  C2024 04 21.51245714 54 42.337+40 52 48.79         21.26iXEH071F52
     K24H01K  C2024 04 21.52570514 54 41.035+40 52 38.34         21.24iXEH071F52
     K24H01K  C2024 04 21.60147514 54 34.217+40 51 28.09         21.16GVEH071F52
     K24H01K  C2024 04 21.60229814 54 34.148+40 51 27.30         21.30GVEH071F52
     K24H01K KC2024 04 22.23550414 54 26.935+40 43 35.22         21.08GVEH071I52
     K24H01K KC2024 04 22.24358814 54 26.316+40 43 30.79         20.73GVEH071I52
     K24H01K KC2024 04 22.25165414 54 25.585+40 43 26.90         20.79GVEH071I52
     K24H01K KC2024 04 22.25975414 54 24.847+40 43 22.98         20.99GVEH071I52
     K24H01K KC2024 04 22.28186014 54 18.69 +40 42 59.4          20.9 GVEH071H21
     K24H01K KC2024 04 22.28764614 54 18.15 +40 42 54.6          21.9 GVEH071H21
     K24H01K KC2024 04 22.29246814 54 17.65 +40 42 50.9          21.6 GVEH071H21
     K24H01K KC2024 04 22.29844814 54 17.11 +40 42 46.2          21.0 GVEH071H21
     K24H01K KB2024 04 23.93202 14 53 11.11 +40 15 41.7                VEH071204
     K24H01K KB2024 04 23.96315 14 53 07.72 +40 15 09.9          21.2 GVEH071204
Observer details:
204 Schiaparelli Observatory.  Observer L. Buzzi.  0.84-m f/3.5 reflector +
    CMO.
F52 Pan-STARRS 2, Haleakala.  Observers J. Herman, T. Lowe, P. Minguez, A.
    Schultz, I. Smith.  Measurers K. Chambers, T. de Boer, J. Fairlamb, H.
    Gao, M. Huber, C.-C. Lin, E. Magnier, Y. Ramanjooloo, R. Wainscoat, R.
    Weryk.  1.8-m Ritchey-Chretien + CCD.
H21 Astronomical Research Observatory, Westfield.  Observer R. Holmes.
    Measurers T. Linder, R. Holmes, L. Horn.  0.76-m f/3.0 astrograph + CCD.
I52 Steward Observatory, Mt. Lemmon Station.  Observer R. A. Kowalski.
    Measurers T. Beuden, V. F. Carvajal, D. Fay, J. B. Fazekas, D. C. Fuls, A.
    R. Gibbs, A. D. Grauer, H. Groeller, J. K. Hogan, R. A. Kowalski, S. M.
    Larson, G. J. Leonard, D. Rankin, R. L. Seaman, F. C. Shelly, K. W.
    Wierzchos.  1.0-m prime focus + CCD.
Orbital elements:
2024 HK1                                                 Earth MOID = 0.0044 AU
Epoch 2024 Mar. 31.0 TT = JDT 2460400.5                 Bell                    
M 312.92643              (2000.0)            P               Q                  
n   0.69274464     Peri.  217.30043     -0.16578825     +0.97320399             
a   1.2649905      Node    43.81033     -0.84020858     -0.05480512             
e   0.2293787      Incl.   13.30677     -0.51629817     -0.22331679             
P   1.42           H   25.34          G   0.15           U   8                  
Residuals in seconds of arc
240421 F52  0.2+  0.3+    240422 I52  0.9-  0.1-    240422 H21  0.2+  0.1-
240421 F52  0.2+  0.3+    240422 I52  0.2+  0.7-    240422 H21  0.2-  0.1+
240421 F52  0.0   0.3+    240422 I52  0.1+  0.5-    240422 H21  0.2+  0.4+
240421 F52  0.3-  0.0     240422 I52  0.1+  0.1-    240423 204  0.0   0.2-
240421 F52  0.3-  0.1+    240422 H21  0.1-  0.1+    240423 204  0.0   0.2+
Ephemeris:
2024 HK1                 a,e,i = 1.26, 0.23, 13                  q = 0.9748
Date    TT    R. A. (2000) Decl.     Delta      r    Elong.  Phase     V
2024 03 26    14 48 30.7 +38 42 46   0.2013  1.1295   126.7    45.0    23.8
...
2024 04 10    14 56 07.3 +41 01 02   0.1245  1.0795   125.8    48.8    22.8
...
2024 04 18    14 56 02.3 +41 15 12   0.08432 1.0551   125.4    50.9    22.0
...
2024 04 24    14 53 03.2 +40 14 45   0.05427 1.0384   125.8    51.7    21.0
2024 04 25    14 52 05.3 +39 51 50   0.04926 1.0357   126.1    51.7    20.8
2024 04 26    14 50 53.4 +39 22 19   0.04427 1.0331   126.5    51.6    20.5
...
2024 05 02    14 28 36.2 +28 05 57   0.01462 1.0185   136.5    42.9    17.9
...
2024 05 10    03 32 00.5 -53 10 02   0.02667 1.0014    71.0   107.6    21.5
...
2024 05 25    03 09 39.9 -45 41 27   0.1003  0.9795    67.9   106.6    24.3
M. P. C. Staff               (C) Copyright 2024 MPC           M.P.E.C. 2024-H71
    
    
More information about the Iaude
mailing list